Flag for Germany Weather past 2 weeks in Chemnitz, Saxony, Germany

Now
61 °F

Broken clouds.


Feels Like: 61 °F
Forecast: 50 / 68 °F
Wind: 5 mph from North

Location: Altenburg Nobitz

Current Time: Sep 2, 2014 at 11:48:21 AM

Latest Report: Sep 2, 2014 at 11:20 AM


Visibility: 4 mi

Pressure: 30.12 "Hg

Humidity: 88%

Dew point: 57 °F

Location of ChemnitzLocation

Historic Weather in Chemnitz — Graph

°F

Chemnitz temperature yesterday

Maximum temperature yesterday: 64 °F (at 4:20 PM)
Minimum temperature yesterday: 55 °F (at 8:50 AM)
Average temperature yesterday: 61 °F

Past Weeks' High & Low Weather Summary

 TemperatureHumidityPressure
High73 °F (Aug 28, 3:50 PM)100% (Aug 26, 9:20 AM)30.12 "Hg (Aug 26, 9:20 AM)
Low45 °F (Aug 28, 6:50 AM)37% (Aug 22, 6:20 PM)29.71 "Hg (Aug 26, 8:20 AM)
Average63 °F67%29.96 "Hg
* Reported Aug 18 10:20 AM — Sep 2 10:50 AM, Chemnitz, Weather by CustomWeather, © 2014

Note: Actual official high and low records may vary slightly from our data, if they occured in-between our weather recording intervals... More about our weather records

Advertising

Chemnitz weather history for previous 24 hours

 ConditionsComfort  
Time TempWeatherWind HumidityBarometerVisibility
10:50 AM
Sep 2
59 °FBroken clouds.5 mph94%30.12 "Hg4 mi
10:20 AM59 °FPartly sunny.6 mph94%30.12 "Hg4 mi
9:50 AM59 °FPartly sunny.1 mph94%30.12 "Hg4 mi
9:20 AM59 °FBroken clouds.2 mph94%30.09 "Hg3 mi
8:50 AM57 °FFog.3 mph100%30.09 "Hg2 mi
8:20 AM57 °FFog.3 mph94%30.09 "Hg2 mi
6:50 PM
Sep 1
63 °FScattered clouds.3 mph77%30.07 "HgN/A
6:20 PM64 °FSunny.3 mph64%30.07 "Hg10 mi
5:50 PM64 °FSunny.5 mph64%30.07 "Hg10 mi
5:20 PM64 °FPassing clouds.5 mph64%30.07 "HgN/A
4:50 PM64 °FPassing clouds.6 mph64%30.07 "HgN/A
4:20 PM64 °FPassing clouds.6 mph64%30.07 "HgN/A
3:50 PM63 °FPartly sunny.6 mph68%30.07 "HgN/A
3:20 PM63 °FPartly sunny.5 mph73%30.07 "HgN/A
2:50 PM61 °FPartly sunny.9 mph72%30.09 "HgN/A
2:20 PM63 °FScattered clouds.3 mph68%30.09 "HgN/A
1:20 PM61 °FBroken clouds.5 mph77%30.09 "HgN/A
12:50 PM59 °FBroken clouds.6 mph82%30.09 "HgN/A
12:20 PM59 °FBroken clouds.6 mph82%30.07 "HgN/A
11:50 AM57 °FPartly sunny.8 mph88%30.07 "HgN/A
11:20 AM59 °FPartly sunny.8 mph82%30.07 "HgN/A
Weather by CustomWeather, © 2014

See weather overviewHow to use our weather pages